Header for Extended Forecast Station List Page

Search by: ID | Name | Date | Parm | Value | Avg | % Avg
Sort by: ID | Name | Date | Parm | Value | Avg | % Avg

Enter search or view all records.

Click on id for station plot
#IDNameDateParmValueAvg% Avg
0ABOM8CLARK FORK-ABOVE MISSOULA10-22-2018DISCHARGE (KAF)367341108
1AFRI1SNAKE-AMERICAN FALLS RESERVOIR10-22-2018INFLOW (KAF)1212147582
2ALFW1PEND OREILLE-ALBENI FALLS DAM10-22-2018INFLOW (KAF)2968428069
3ALPW4SNAKE-NEAR ALPINE10-22-2018DISCHARGE (KAF)38338699
4ANAW1SNAKE-NEAR ANATONE10-22-2018DISCHARGE (KAF)4011569870
5ANTI1HENRYS FORK-AT ST. ANTHONY10-22-2018DISCHARGE (KAF)349341102
6ARAI1SF BOISE-ANDERSON RANCH DAM10-22-2018INFLOW (KAF)667589
7ARDW1ENTIAT-NEAR ARDENVOIR10-22-2018DISCHARGE (KAF)222298
8BELM8CLARK FORK-BELOW MISSOULA10-22-2018DISCHARGE (KAF)52957093
9BERO3MALHEUR-AGENCY VALLEY DAM10-22-2018INFLOW (KAF)111667
10BFEI1KOOTENAI-AT BONNERS FERRY10-22-2018STAGE (FT)MMM
11BFTI1SNAKE-NEAR BLACKFOOT10-22-2018DISCHARGE (KAF)55478870
12BIGI1BOISE-AT GLENWOOD BRIDGE10-22-2018DISCHARGE (KAF)5536153
13BITM8BITTERROOT-NEAR MISSOULA10-22-2018DISCHARGE (KAF)15922471
14BONM8BLACKFOOT-NEAR BONNER10-22-2018DISCHARGE (KAF)138134103
15BONO3COLUMBIA-BONNEVILLE DAM10-22-2018INFLOW (KAF)295433655281
16BRNI1SNAKE-BROWNLEE DAM10-22-2018INFLOW (KAF)2766374274
17BUDW1BUMPING-BUMPING LAKE DAM10-22-2018INFLOW (KAF)163643
18BULO3BULLY CREEK-BULLY CREEK DAM10-22-2018INFLOW (KAF)33104
19CABI1CLARK FORK-CABINET GORGE DAM10-22-2018INFLOW (KAF)2881366979
20CFMM8FLATHEAD-AT COLUMBIA FALLS10-22-2018DISCHARGE (KAF)884117575
21CHDW1CHELAN-LAKE CHELAN DAM10-22-2018INFLOW (KAF)15615899
22CHEI1FALL RIVER-NEAR CHESTER10-22-2018DISCHARGE (KAF)113112100
23CHJW1COLUMBIA-CHIEF JOSEPH DAM10-22-2018INFLOW (KAF)204952145296
24CIBW1COLUMBIA-AT INTL BOUNDARY10-22-2018DISCHARGE (KAF)18727MM
25CLFW1NACHES-NEAR CLIFFDEL10-22-2018DISCHARGE (KAF)5710554
26CLUW1CLE ELUM-CLE ELUM LAKE10-22-2018INFLOW (KAF)5410452
27COEI1COEUR D ALENE-COEUR D ALENE LAKE10-22-2018INFLOW (KAF)22869933
28CSDI1NF PAYETTE-CASCADE DAM10-22-2018INFLOW (KAF)749478
29DEDI1DEADWOOD-NEAR LOWMAN10-22-2018INFLOW (KAF)151982
30DLGM8CLARK FORK-AT DEER LODGE10-22-2018DISCHARGE (KAF)7362117
31DRMM8CLARK FORK-NR DRUMMOND10-22-2018DISCHARGE (KAF)153MM
32DWRI1NF CLEARWATER-DWORSHAK DAM10-22-2018INFLOW (KAF)25252148
33EASW1YAKIMA-AT EASTON10-22-2018DISCHARGE (KAF)586885
34EMMI1PAYETTE-NEAR EMMETT10-22-2018DISCHARGE (KAF)28135080
35FCFM8NF FLATHEAD-NEAR COLUMBIA FALLS10-22-2018DISCHARGE (KAF)10518955
36GCDW1COLUMBIA-GRAND COULEE DAM10-22-2018INFLOW (KAF)1940117239113
37GIBO3UMATILLA-NEAR GIBBON10-22-2018DISCHARGE (KAF)303488
38HALI1BIG WOOD-AT HAILEY10-22-2018DISCHARGE (KAF)3939101
39HEII1SNAKE-NEAR HEISE10-22-2018DISCHARGE (KAF)36158662
40HHWM8SF FLATHEAD-HUNGRY HORSE DAM10-22-2018INFLOW (KAF)13224354
41HODO3HOOD-NEAR TUCKER BRIDGE10-22-2018DISCHARGE (KAF)232232100
42HOPI1PEND OREILLE-PEND OREILLE LAKE NR HOPE10-22-2018LAKE ELEVATION (FT)MMM
43HOTI1BRUNEAU-NEAR HOT SPRINGS10-22-2018DISCHARGE (KAF)172862
44HWRI1BIG LOST-AT HOWELL RANCH NEAR CHILLY10-22-2018DISCHARGE (KAF)2221104
45IHDW1SNAKE-ICE HARBOR DAM10-22-2018INFLOW (KAF)4840757664
46IPDI1HENRYS FORK-ISLAND PARK DAM10-22-2018INFLOW (KAF)8211671
47JDAO3COLUMBIA-JOHN DAY DAM10-22-2018INFLOW (KAF)282063067892
48JKSW4SNAKE-NEAR JACKSON10-22-2018DISCHARGE (KAF)327308106
49JLKW4SNAKE-JACKSON LAKE AT DAM10-22-2018INFLOW (KAF)10411392
50KADW1KACHESS-KACHESS DAM10-22-2018INFLOW (KAF)274660
51KEDW1YAKIMA-KEECHELUS LAKE10-22-2018INFLOW (KAF)335263
52KERM8FLATHEAD-KERR DAM10-22-2018INFLOW (KAF)986149566
53KIOW1YAKIMA-AT KIONA10-22-2018DISCHARGE (KAF)57570482
54LAUW1KETTLE-AT LAURIER10-22-2018DISCHARGE (KAF)8012564
55LEOI1KOOTENAI-AT LEONIA10-22-2018DISCHARGE (KAF)24451513162
56LGDW1SNAKE-LOWER GRANITE DAM10-22-2018INFLOW (KAF)4794752064
57LGSW1SNAKE-LITTLE GOOSE DAM10-22-2018INFLOW (KAF)4794757063
58LLKW1SPOKANE-AT LONGLAKE10-22-2018INFLOW (KAF)515116444
59LMNW1SNAKE-LOWER MONUMENTAL DAM10-22-2018INFLOW (KAF)4840766163
60LUCI1BOISE-LUCKY PEAK DAM10-22-2018INFLOW (KAF)43MM
61LWRI1LITTLE WOOD-LITTLE WOOD DAM10-22-2018INFLOW (KAF)121580
62LYDM8KOOTENAI-LIBBY DAM10-22-2018INFLOW (KAF)74888485
63MACI1BIG LOST-MACKAY RESERVOIR NEAR MACKAY10-22-2018INFLOW (KAF)385720
64MAGI1BIG WOOD-MAGIC DAM10-22-2018INFLOW (KAF)252790
65MCDW1COLUMBIA-MCNARY DAM10-22-2018INFLOW (KAF)270472968491
66MILI1SNAKE-AT MILNER10-22-2018DISCHARGE (KAF)6357111
67MODO3DESCHUTES-AT MOODY NR BIGGS10-22-2018DISCHARGE (KAF)1329139795
68MONO3NF JOHN DAY-AT MONUMENT10-22-2018DISCHARGE (KAF)6311156
69MYKO3MCKAY CREEK-NEAR PILOT ROCK10-22-2018DISCHARGE (KAF)1817104
70NACW1NACHES-NEAR NACHES10-22-2018DISCHARGE (KAF)397949
71NOXM8CLARK FORK-NOXON RAPIDS DAM10-22-2018INFLOW (KAF)2623351375
72ORFI1CLEARWATER-AT OROFINO10-22-2018DISCHARGE (KAF)31867747
73OWYO3OWYHEE-OWYHEE DAM10-22-2018INFLOW (KAF)648476
74PARI1BOISE-NEAR PARMA10-22-2018DISCHARGE (KAF)18520989
75PARW1YAKIMA-NEAR PARKER10-22-2018DISCHARGE (KAF)36647577
76PATW1METHOW-NEAR PATEROS10-22-2018DISCHARGE (KAF)979899
77PDTO3UMATILLA-AT PENDLETON10-22-2018DISCHARGE (KAF)798099
78PESW1WENATCHEE-AT PESHASTIN10-22-2018DISCHARGE (KAF)17729959
79PIHI1PORTNEUF-AT POCATELLO10-22-2018DISCHARGE (KAF)586392
80PITW1KLICKITAT-NEAR PITT10-22-2018DISCHARGE (KAF)22128378
81PLDI1SF SNAKE-PALISADES DAM10-22-2018INFLOW (KAF)60362497
82PRTI1PRIEST-NEAR PRIEST RIVER10-22-2018DISCHARGE (KAF)9723441
83PRWW1COLUMBIA-PRIEST RAPIDS DAM10-22-2018INFLOW (KAF)2158420109107
84RCCM8ROCK CREEK-NEAR CLINTON10-22-2018DISCHARGE (KAF)6148127
85REXI1HENRYS FORK-AT REXBURG10-22-2018DISCHARGE (KAF)437430102
86RIDI1WILLOW CREEK-RIRIE DAM10-22-2018INFLOW (KAF)8899
87RILW1TIETON-RIMROCK LAKE NEAR RIMROCK10-22-2018INFLOW (KAF)356753
88RRHW1COLUMBIA-ROCKY REACH DAM10-22-2018INFLOW (KAF)214042232996
89SATI1ST MARIES-NEAR SANTA10-22-2018DISCHARGE (KAF)143442
90SERO3JOHN DAY-AT SERVICE CK10-22-2018DISCHARGE (KAF)13320465
91SHYI1SNAKE-NEAR SHELLEY10-22-2018DISCHARGE (KAF)62680478
92SIFI1SNAKE-AB EAGLE ROCK NR IDAHO FALLS10-22-2018DISCHARGE (KAF)63181677
93SJMI1ST JOE-AT ST MARIES10-22-2018STAGE (FT)MMM
94SNAI1SNAKE-AT BLACKFOOT10-22-2018DISCHARGE (KAF)53973473
95SPDI1CLEARWATER-AT SPALDING10-22-2018DISCHARGE (KAF)783161548
96SPOW1SPOKANE-AT SPOKANE10-22-2018DISCHARGE (KAF)328MM
97SRGM8CLARK FORK-AT ST REGIS10-22-2018DISCHARGE (KAF)67274690
98STRM8ST. REGIS-NEAR ST. REGIS10-22-2018DISCHARGE (KAF)183846
99SWAI1SNAKE-BELOW SWAN FALLS10-22-2018DISCHARGE (KAF)1804256070
100TCHW1WALLA WALLA-NEAR TOUCHET10-22-2018DISCHARGE (KAF)9112076
101TDAO3COLUMBIA-THE DALLES DAM10-22-2018INFLOW (KAF)288723435584
102TEAI1TETON-NEAR ST. ANTHONY10-22-2018DISCHARGE (KAF)9110389
103TNAW1TEANAWAY-BELOW FORKS10-22-2018DISCHARGE (KAF)104025
104TONW1OKANOGAN-NEAR TONASKET10-22-2018DISCHARGE (KAF)22328179
105TRYO3GRANDE RONDE-TROY10-22-2018DISCHARGE (KAF)18930462
106UMAO3UMATILLA-NEAR UMATILLA10-22-2018DISCHARGE (KAF)11484135
107UMTW1YAKIMA-AT UMTANUM10-22-2018DISCHARGE (KAF)23424795
108UNDW1WHITE SALMON-NEAR UNDERWOOD10-22-2018DISCHARGE (KAF)23524098
109VALO3MALHEUR-NEAR VALE10-22-2018DISCHARGE (KAF)202773
110WANW1COLUMBIA-WANAPUM DAM10-22-2018INFLOW (KAF)2158619761109
111WEII1SNAKE-AT WEISER10-22-2018DISCHARGE (KAF)2590363271
112WELW1COLUMBIA-WELLS DAM10-22-2018INFLOW (KAF)208152183195
113WGCM8MF FLATHEAD-NEAR WEST GLACIER10-22-2018DISCHARGE (KAF)10516663
114WHBI1SALMON-AT WHITEBIRD10-22-2018DISCHARGE (KAF)1045106798
115WRMO3MALHEUR-WARM SPRINGS DAM10-22-2018INFLOW (KAF)172375
116WSRI1WEISER-NEAR WEISER10-22-2018DISCHARGE (KAF)428152